Location: Castillon
(43.0896°N, 0.2156°E)
Time: 01:09:56
(UTC+00:00)

Cosmos 968 Rocket - Pass Details

Date: 16 June 2021
Orbit: 740 x 771 km, 74.0° (Epoch: 04 August)

Event Time Altitude Azimuth Distance (km) Brightness Sun altitude
Rises 22:24:29 0° 342° (NNW) 3,187 8.3 -20.0°
Reaches altitude 10° 22:26:52 10° 345° (NNW) 2,261 7.1 -20.2°
Maximum altitude 22:31:57 65° 68° (ENE) 819 3.6 -20.5°
Enters shadow 22:33:33 42° 132° (SE) 1,055 3.8 -20.6°
